Theta_e
340 339 339 339 341 344 346 348 349 350 349 346 343 342 343 343 342 343 343 341 338 331 324 318 316 317 318 322 328 333 335 330 325 324 325 325 324 325 327 329 331 332
340 340 338 339 341 343 346 348 348 348 346 343 341 341 342 343 343 342 340 340 336 328 320 317 316 317 319 321 325 331 333 329 325 325 324 325 326 325 326 328 330 329
340 340 339 340 342 343 345 348 348 347 345 343 341 342 343 343 342 341 338 336 333 328 322 318 317 317 319 321 323 326 328 326 323 324 325 326 327 327 328 330 331 328
340 340 340 340 342 343 344 348 349 348 346 344 342 342 344 344 343 341 337 332 329 327 323 318 316 317 319 320 322 323 325 324 323 324 325 327 328 327 328 332 333 332
340 341 342 341 342 343 344 346 347 348 347 345 344 343 344 344 343 340 336 331 326 325 323 319 316 317 318 319 319 322 324 323 323 325 325 324 325 327 327 329 333 335
341 342 343 342 342 343 344 345 346 346 346 345 344 345 344 344 342 341 338 334 330 327 325 322 318 316 318 318 318 321 323 322 322 324 325 323 323 325 325 326 329 334
341 342 344 343 343 343 343 344 345 345 345 344 344 344 344 343 342 341 340 339 337 333 329 326 321 317 318 318 319 321 321 321 321 323 323 322 322 323 323 322 324 329
343 342 344 344 344 345 344 344 344 344 344 344 344 343 343 342 341 341 341 341 340 337 334 330 325 320 318 318 319 320 321 320 320 322 322 321 321 322 321 321 323 327
345 343 344 344 345 345 345 344 343 343 344 344 343 343 343 342 341 340 340 341 341 339 336 334 330 324 319 318 319 320 322 321 321 323 323 321 322 322 322 323 325 327
349 346 345 345 345 345 345 344 344 344 344 344 344 343 343 342 341 341 341 341 341 339 338 335 333 328 322 319 318 319 321 322 322 324 323 321 322 322 322 323 325 327
351 348 347 346 345 345 345 345 345 345 345 346 345 344 344 343 343 342 342 342 342 341 339 337 336 333 327 321 318 318 321 322 323 324 323 322 321 322 322 322 324 326
353 350 348 346 346 345 345 345 346 346 346 347 347 346 345 345 343 343 342 343 343 342 341 340 339 336 332 324 319 318 319 321 323 324 324 323 322 322 322 322 324 325
353 350 347 346 346 345 345 346 347 346 347 347 348 348 348 346 345 344 344 344 344 344 343 342 341 340 335 327 322 320 318 319 323 324 324 323 321 321 321 322 323 325
353 349 347 346 346 346 346 346 347 348 348 348 349 349 349 348 347 347 347 348 347 347 346 345 344 342 337 331 327 324 319 318 323 324 324 322 320 320 321 322 323 324
354 350 348 347 347 347 347 346 347 349 350 350 351 351 351 350 350 351 351 351 350 350 349 347 346 344 341 337 333 328 321 319 323 325 325 323 321 319 320 321 322 323
355 351 348 347 347 347 346 346 347 349 351 352 353 353 353 353 353 353 353 353 352 352 351 350 348 346 344 341 338 333 324 320 322 324 325 324 322 320 320 321 322 323
356 352 350 348 346 346 345 347 349 351 353 354 355 355 355 355 355 354 354 354 353 353 352 352 350 347 346 343 341 338 328 320 321 324 324 324 323 321 321 322 322 323
357 353 351 349 347 346 346 348 351 354 355 356 357 357 358 358 358 356 355 355 355 354 354 353 351 349 347 346 344 341 332 321 320 323 323 323 323 322 321 322 323 324
359 356 353 351 349 349 349 351 354 356 357 357 357 358 359 360 359 358 357 356 356 355 354 354 352 350 348 348 346 345 338 325 319 321 323 322 323 322 322 322 323 324
359 358 355 353 352 353 353 355 356 357 357 357 358 359 359 360 360 359 359 357 357 356 355 354 353 351 350 349 347 347 343 330 320 320 323 322 323 323 322 322 323 324
360 360 359 357 356 357 357 357 357 357 358 358 359 359 359 360 360 359 359 358 358 357 356 355 354 352 350 350 348 348 346 334 321 320 322 322 323 324 323 323 323 323
361 362 361 360 359 359 359 359 358 358 359 359 359 359 360 360 360 359 359 358 358 358 356 355 354 352 351 351 349 349 346 335 322 319 322 323 324 324 324 324 323 323
362 363 363 362 361 362 361 360 360 360 360 360 360 360 360 360 359 359 358 359 358 358 357 355 354 353 352 351 350 349 346 336 324 320 321 324 326 326 324 323 323 324
363 364 363 363 363 362 362 361 361 361 361 361 360 361 360 359 359 359 359 359 359 359 358 356 355 353 352 351 350 348 345 337 327 321 321 324 326 325 324 323 324 324
364 364 364 364 364 364 363 362 362 362 361 361 361 361 360 359 358 357 358 359 359 359 358 356 354 353 352 351 349 347 345 339 328 321 321 324 324 324 324 325 324 323
365 365 365 365 365 365 364 363 363 361 360 360 361 361 360 358 356 355 355 357 358 358 357 355 353 352 351 349 348 347 345 338 327 322 322 324 325 324 325 325 324 323
Wind_Speed
33 33 33 32 32 31 30 29 28 28 28 27 25 24 23 21 20 20 20 20 18 17 15 12 12 14 15 16 15 14 11 9 10 12 12 13 14 14 15 15 15 14
34 33 34 34 34 33 32 31 30 29 28 26 25 24 23 22 22 22 21 21 20 17 15 13 13 15 17 17 16 14 13 11 11 12 12 13 14 14 14 14 14 14
35 34 35 35 35 34 33 33 32 30 28 26 25 24 24 24 24 23 22 23 21 19 17 14 14 16 17 18 17 16 15 14 13 12 12 12 14 14 14 14 13 12
37 35 36 36 36 35 33 33 33 31 29 27 26 25 25 25 24 24 23 24 22 20 18 15 15 16 17 18 19 18 17 16 15 14 13 13 14 15 15 15 14 12
38 36 37 37 36 35 34 34 34 33 30 29 28 27 26 26 25 25 25 24 22 20 18 16 16 18 18 18 19 19 18 18 18 17 15 14 15 16 16 16 16 15
40 38 37 37 37 36 36 36 35 34 32 30 29 29 28 28 27 26 26 24 22 20 19 17 18 19 19 18 18 18 18 19 19 18 17 15 14 16 17 17 18 18
42 40 39 38 37 36 36 36 36 35 34 32 31 31 30 30 29 28 27 25 23 22 20 19 19 20 20 20 19 18 18 19 19 18 17 15 13 15 17 17 18 20
43 41 39 39 38 37 36 36 36 36 35 34 34 33 32 32 31 30 28 27 25 24 22 20 21 21 22 22 21 19 19 20 19 17 16 15 14 15 17 19 19 19
44 42 41 40 39 39 38 37 37 37 36 36 35 35 34 34 33 32 31 29 28 27 25 23 24 24 24 24 23 21 20 20 19 16 15 16 15 14 17 20 20 17
46 43 42 42 41 40 39 38 37 37 37 37 37 36 36 36 35 34 33 32 31 30 29 27 27 27 26 26 25 24 21 20 19 16 16 17 17 16 17 19 20 18
47 45 44 43 42 42 41 39 38 37 38 38 38 38 38 37 37 36 36 35 35 34 32 31 30 30 29 28 27 25 22 21 20 17 16 17 18 18 18 19 20 20
48 47 46 45 44 43 42 41 39 39 39 39 39 39 39 38 38 38 38 38 37 36 35 34 32 32 31 29 26 24 23 23 22 20 18 19 20 20 20 20 21 21
50 49 47 46 45 44 43 42 41 41 40 40 40 39 39 39 40 40 40 39 38 38 37 36 34 33 32 30 27 25 26 26 25 23 21 22 22 22 22 22 22 22
51 49 48 47 45 45 44 43 43 42 42 41 40 40 40 40 40 40 39 39 39 38 38 37 36 35 34 33 32 30 28 27 27 26 24 24 25 25 24 23 23 23
51 50 49 47 46 45 45 44 44 44 43 43 42 42 41 40 40 39 39 39 39 39 38 38 38 37 37 37 36 33 29 29 30 28 25 25 26 27 27 26 24 23
50 50 49 48 47 47 45 45 45 45 45 44 44 42 41 40 39 39 39 39 39 39 39 40 40 39 39 39 37 34 32 31 31 29 26 27 29 29 29 27 25 24
49 50 50 49 48 47 46 46 45 45 45 44 44 42 40 39 39 39 39 39 39 39 39 41 42 41 40 38 35 34 34 32 32 30 28 29 31 31 29 27 25 24
50 49 50 50 49 48 47 46 46 45 44 43 43 42 40 38 38 38 38 38 37 38 39 41 42 42 40 36 32 32 35 34 32 31 30 31 33 32 29 27 25 23
50 49 49 49 49 49 47 46 46 45 44 43 43 41 40 39 39 38 38 38 38 38 39 40 42 42 39 33 29 30 34 36 33 31 31 33 34 32 30 29 25 22
50 50 49 48 48 48 48 47 46 45 44 44 42 41 40 40 40 40 40 40 40 40 40 40 42 42 38 32 27 27 31 36 35 31 30 33 35 33 31 29 26 22
51 50 49 48 47 47 47 46 45 44 44 44 43 42 42 41 40 41 41 41 41 41 41 42 42 41 37 32 28 27 29 34 36 31 29 32 36 35 32 29 26 22
52 50 48 47 46 46 46 45 45 44 44 43 43 42 41 40 40 41 41 41 42 42 42 42 42 40 36 32 29 28 29 33 36 32 31 33 36 36 33 29 26 23
51 49 47 46 45 45 45 44 44 44 43 42 42 41 41 41 40 40 40 40 41 42 42 42 41 40 36 32 31 30 30 32 36 35 34 34 36 37 33 28 27 26
50 49 47 47 46 45 45 44 43 42 41 40 40 41 41 41 40 39 39 39 39 40 40 41 41 39 35 33 32 31 30 31 35 38 37 35 36 38 35 29 28 28
49 48 47 47 46 44 43 42 40 38 37 36 38 39 39 39 39 39 39 38 38 38 38 39 39 37 35 34 32 30 29 30 34 37 36 35 37 38 36 30 28 28
48 47 47 46 44 42 40 38 36 35 34 35 36 37 37 37 37 37 36 36 35 35 36 36 36 35 33 32 30 28 28 30 34 37 37 38 39 39 36 32 30 29
Wind_Direction
221 221 221 220 221 220 217 215 212 210 213 216 218 219 219 217 217 222 225 229 233 234 229 219 211 210 212 216 216 213 209 203 198 198 197 195 195 196 193 189 189 187
221 220 220 219 220 219 217 216 216 216 218 218 218 219 219 218 220 226 232 235 234 228 220 210 206 211 213 215 220 219 213 209 202 195 194 197 198 200 199 194 195 197
220 220 218 218 219 218 216 216 218 219 221 220 217 216 217 218 222 229 235 240 236 224 218 210 205 214 215 210 217 224 220 219 215 201 195 198 200 203 203 201 205 205
219 219 219 218 219 219 216 215 217 219 220 221 219 217 217 219 224 230 234 238 235 226 220 213 207 214 215 207 211 219 220 222 221 211 201 201 205 207 205 205 209 209
217 219 219 218 218 218 217 216 216 217 219 220 220 219 218 220 224 229 232 231 230 228 224 216 211 214 217 212 209 212 214 214 214 212 207 202 204 209 209 208 210 213
217 218 218 218 218 217 217 217 217 218 219 221 221 221 221 222 226 230 231 231 230 230 227 222 217 215 218 219 213 210 209 204 204 209 209 205 204 207 208 211 214 216
217 218 218 217 217 218 218 218 218 219 221 222 224 225 224 225 228 231 234 234 233 234 232 227 223 221 221 222 217 212 208 203 202 206 209 209 208 209 211 213 216 216
217 218 218 217 217 218 218 218 219 220 222 224 225 227 228 228 231 234 236 237 237 237 237 232 228 227 225 224 219 214 211 206 203 206 211 212 214 215 214 214 215 214
217 218 218 217 218 218 219 219 219 221 222 224 227 228 229 231 234 236 237 238 238 239 240 237 233 231 228 226 224 220 216 208 204 210 217 217 221 223 217 216 214 212
217 218 218 218 219 220 220 220 220 221 223 225 227 229 229 231 233 236 238 238 239 239 240 240 238 235 231 228 226 225 220 211 208 214 220 223 227 227 221 218 216 214
216 218 218 219 220 221 222 222 222 223 224 225 227 228 229 231 232 234 236 237 238 239 240 241 240 237 235 232 227 224 221 215 213 217 223 227 230 228 223 219 217 218
215 217 219 220 221 222 223 223 223 224 225 226 228 228 229 230 231 234 235 236 238 239 240 242 240 237 237 233 226 225 224 219 216 218 224 229 230 228 223 218 218 221
215 217 219 221 221 222 223 223 223 225 226 227 228 229 229 230 232 234 235 237 239 239 241 241 240 238 234 227 225 230 230 223 218 219 224 227 229 228 223 219 219 224
217 217 219 221 222 222 223 224 224 224 225 227 228 229 230 232 234 234 236 238 239 240 241 241 239 237 231 225 228 233 231 225 222 221 223 227 228 228 225 222 222 226
218 218 219 221 222 222 223 224 224 224 224 226 227 229 230 233 234 235 236 237 238 239 240 240 238 235 232 231 233 233 228 226 224 222 226 230 228 226 225 224 225 226
218 219 219 220 221 222 224 224 224 223 223 224 226 228 229 231 233 235 236 238 239 239 240 240 237 234 235 238 239 236 231 228 225 224 229 233 228 224 224 226 227 227
218 219 219 220 222 223 224 224 223 223 222 223 225 227 228 229 231 233 236 238 239 240 241 240 237 235 236 240 242 239 234 230 227 226 232 235 230 226 226 228 229 228
218 219 219 220 221 223 224 223 222 221 220 220 224 226 227 228 229 233 236 238 239 241 241 240 239 238 237 240 245 242 235 231 229 229 234 237 232 227 228 230 231 230
219 219 220 220 221 222 222 221 220 218 219 220 222 225 227 227 229 233 236 238 240 242 242 241 240 239 237 239 245 245 238 232 228 229 237 240 234 230 229 228 229 233
219 219 220 220 220 219 219 219 219 218 219 220 221 223 225 226 228 231 234 238 242 244 244 242 240 239 237 238 244 247 242 233 228 230 237 240 235 232 231 230 229 233
218 218 219 218 217 217 216 217 218 218 218 219 220 222 224 226 228 230 234 237 240 243 243 242 242 240 239 240 245 249 245 233 226 229 237 239 236 233 233 233 231 233
216 215 215 215 214 214 214 215 216 217 217 217 218 221 223 226 227 230 234 236 238 240 241 242 243 242 240 242 246 250 247 232 223 227 237 238 236 233 232 233 231 233
213 212 212 212 212 212 213 214 215 215 216 216 217 219 221 224 226 228 232 236 237 239 241 241 243 242 242 244 247 248 246 232 223 226 233 235 235 233 232 233 231 234
210 210 210 210 211 211 212 213 213 214 215 217 218 220 221 223 225 227 231 234 237 240 242 243 244 244 244 246 247 246 246 236 226 226 230 234 235 233 233 234 232 234
208 208 209 209 209 209 211 212 213 214 216 217 219 220 221 222 225 227 230 233 236 240 243 243 243 244 245 247 246 246 248 240 228 226 231 236 236 234 234 234 231 234
205 206 207 207 207 208 210 213 214 214 216 217 217 218 219 222 225 228 229 231 234 239 241 241 241 242 244 245 246 248 249 239 227 227 235 239 236 232 232 233 233 238